Location: Dumbr?vi?a
(45.8833°N, 22.7000°E)
Time: 06:53:29
(UTC+00:00)

CZ-2C R/B - Pass Details

Date: 03 March 2021
Orbit: 784 x 871 km, 98.2° (Epoch: 10 April)

Event Time Altitude Azimuth Distance (km) Brightness Sun altitude
Rises 17:59:54 0° 11° (N) 3,433 5.9 -18.4°
Reaches altitude 10° 18:02:19 10° 9° (N) 2,482 5.2 -18.8°
Maximum altitude 18:07:47 68° 288° (WNW) 899 3.0 -19.7°
Drops below altitude 10° 18:13:04 10° 206° (SSW) 2,407 5.2 -20.6°
Sets 18:15:23 0° 204° (SSW) 3,323 5.9 -21.0°
